DW3733 Luzzi (cosenza) IT current weather conditions

sailwx.info

Wind from 260 at 0 knots gusting 2

Air temperature 11.1° C
Dewpoint 10.8° C

Last reported at 2014-Oct-30 21:23 UTC.
Time now 2014-Oct-31 05:46 UTC

Location: N 39°27' E 016°16'.
View on Google Maps.

See reports from other nearby stations

  
Tides and Currents Weather Stations Pressure Air Temp Water Temp Dewpoint Dewpoint Depression Visibility Wind Speed Wind Dir Waves Ship Positions
date/time (UTC)wind fromknots sea level pressurealtimeterstation pressurevisibilityair tempwater tempwave heightnotes
2014-Oct-30 21:23 260 0 gusting 2 11.1
2014-Oct-30 21:13 190 11.1
2014-Oct-30 21:03 225 1 gusting 2 11.1
2014-Oct-30 20:53 248 11.1
2014-Oct-30 20:43 11.1
2014-Oct-30 20:33 090 0 gusting 1 11.1
2014-Oct-30 20:23 045 0 gusting 1 11.1
2014-Oct-30 20:13 090 0 gusting 1 11.1
2014-Oct-30 20:03 045 0 gusting 0 11.1
2014-Oct-30 19:53 090 11.1
2014-Oct-30 19:43 090 11.1
2014-Oct-30 19:33 162 0 gusting 2 11.1
2014-Oct-30 19:23 315 11.7
2014-Oct-30 19:13 237 11.1
2014-Oct-30 19:03 090 1 gusting 2 11.7
2014-Oct-30 18:53 357 0 gusting 1 11.7
2014-Oct-30 18:43 285 11.7
2014-Oct-30 18:33 045 11.7
2014-Oct-30 18:23 036 1 gusting 2 11.7
2014-Oct-30 18:13 062 0 gusting 2 11.7
2014-Oct-30 18:03 083 0 gusting 2 11.7
2014-Oct-30 17:53 090 0 gusting 2 11.7
2014-Oct-30 17:43 126 0 gusting 4 11.7
2014-Oct-30 17:33 089 1 gusting 4 11.7
2014-Oct-30 17:23 079 0 gusting 4 12.2
2014-Oct-30 17:13 135 0 gusting 1 12.2
2014-Oct-30 17:03 328 0 gusting 5 12.2
2014-Oct-30 16:53 306 1 gusting 5 12.8
2014-Oct-30 16:43 135 0 gusting 2 12.8
2014-Oct-30 16:33 069 1 gusting 5 12.8
2014-Oct-30 16:23 358 1 gusting 5 13.3
2014-Oct-30 16:13 13.3
2014-Oct-30 16:03 351 13.3
2014-Oct-30 15:53 323 0 gusting 4 13.9
2014-Oct-30 15:43 315 13.9
2014-Oct-30 15:33 042 1 gusting 4 14.4
2014-Oct-30 15:23 14.4
2014-Oct-30 15:13 033 0 gusting 5 14.4
2014-Oct-30 15:03 045 0 gusting 4 14.4
2014-Oct-30 14:53 045 0 gusting 2 14.4
2014-Oct-30 14:43 018 1 gusting 2 14.4
2014-Oct-30 14:33 14.4
2014-Oct-30 14:23 15.0
2014-Oct-30 14:13 180 0 gusting 2 15.0
2014-Oct-30 14:03 090 0 gusting 5 15.0
2014-Oct-30 13:53 090 15.0
2014-Oct-30 13:43 15.6
2014-Oct-30 13:33 16.1
2014-Oct-30 13:23 16.7
2014-Oct-30 13:13 071 0 gusting 2 16.1
2014-Oct-30 13:03 090 1 gusting 5 15.0
2014-Oct-30 12:53 090 2 gusting 5 15.6
2014-Oct-30 12:43 090 0 gusting 2 15.6
2014-Oct-30 12:33 240 0 gusting 2 15.6
2014-Oct-30 12:23 225 1 gusting 2 16.1
2014-Oct-30 12:13 081 0 gusting 2 16.7
2014-Oct-30 12:03 045 1 gusting 5 16.7
2014-Oct-30 11:53 317 1 gusting 5 17.2
2014-Oct-30 11:43 110 1 gusting 4 18.3
2014-Oct-30 11:33 18.9
2014-Oct-30 11:23 064 2 gusting 6 19.4
2014-Oct-30 11:13 335 3 gusting 5 20.0
2014-Oct-30 11:03 20.0
2014-Oct-30 10:53 315 1 gusting 5 19.4
2014-Oct-30 10:43 001 2 gusting 5 19.4
2014-Oct-30 10:33 110 0 gusting 5 18.9
2014-Oct-30 10:23 026 1 gusting 5 18.9
2014-Oct-30 10:13 169 2 gusting 6 18.3
2014-Oct-30 10:03 307 1 gusting 5 18.3
2014-Oct-30 09:53 077 2 gusting 6 17.8
2014-Oct-30 09:43 030 1 gusting 5 17.8
2014-Oct-30 09:33 087 1 gusting 6 17.8
2014-Oct-30 09:23 078 1 gusting 5 17.2
2014-Oct-30 09:13 180 1 gusting 4 17.2
2014-Oct-30 09:03 342 0 gusting 4 17.2
2014-Oct-30 08:53 045 0 gusting 2 16.7
2014-Oct-30 08:43 16.1
2014-Oct-30 08:33 15.6
2014-Oct-30 08:23 15.6
2014-Oct-30 08:13 315 15.0
2014-Oct-30 08:03 334 0 gusting 1 14.4
2014-Oct-30 07:53 14.4
2014-Oct-30 07:43 212 0 gusting 1 13.9
2014-Oct-30 07:33 170 12.8
2014-Oct-30 07:23 186 12.2
2014-Oct-30 07:13 232 11.1
2014-Oct-30 07:03 183 10.6
2014-Oct-30 06:53 223 0 gusting 0 10.6
2014-Oct-30 06:43 090 9.4
2014-Oct-30 06:33 090 8.9
2014-Oct-30 06:23 340 8.3
2014-Oct-30 06:13 315 7.8
2014-Oct-30 06:03 117 0 gusting 0 11.1
2014-Oct-29 22:03 148 0 gusting 2 11.1
2014-Oct-29 21:53 180 0 gusting 2 11.1
2014-Oct-29 21:43 140 0 gusting 2 11.7
2014-Oct-29 21:33 288 0 gusting 2 11.7
2014-Oct-29 21:23 315 11.7
2014-Oct-29 21:13 276 11.7
2014-Oct-29 21:03 090 11.1
2014-Oct-29 20:53 090 0 gusting 0 11.1
2014-Oct-29 20:43 045 11.1
2014-Oct-29 20:33 152 11.1
2014-Oct-29 20:23 090 0 gusting 1 11.1
2014-Oct-29 20:13 135 0 gusting 1 11.1
2014-Oct-29 20:03 045 11.1
2014-Oct-29 19:53 180 11.1
2014-Oct-29 19:43 225 11.1
2014-Oct-29 19:33 258 0 gusting 1 11.1
2014-Oct-29 19:23 045 11.1
2014-Oct-29 19:13 135 0 gusting 1 11.1
2014-Oct-29 19:03 045 11.7
2014-Oct-29 18:53 329 11.7
2014-Oct-29 18:43 12.2
2014-Oct-29 18:33 12.2
2014-Oct-29 18:23 045 0 gusting 1 11.7
2014-Oct-29 18:13 090 0 gusting 1 12.2
2014-Oct-29 18:03 067 0 gusting 1 12.2
2014-Oct-29 17:53 038 0 gusting 0 12.8
2014-Oct-29 17:43 045 13.3
2014-Oct-29 17:33 044 13.3
2014-Oct-29 17:23 13.3
2014-Oct-29 17:13 135 13.3
2014-Oct-29 17:03 135 0 gusting 1 13.9
2014-Oct-29 16:53 045 14.4
2014-Oct-29 16:43 323 0 gusting 2 14.4
2014-Oct-29 16:33 090 1 gusting 2 14.4
2014-Oct-29 16:23 090 0 gusting 2 15.0
2014-Oct-29 16:13 101 1 gusting 2 15.6
2014-Oct-29 16:03 090 1 gusting 2 16.1
2014-Oct-29 15:53 045 1 gusting 2 16.7
2014-Oct-29 15:43 090 0 gusting 1 17.2
2014-Oct-29 15:33 315 17.8
2014-Oct-29 15:23 17.8
2014-Oct-29 15:13 17.8
2014-Oct-29 15:03 316 0 gusting 2 17.8
2014-Oct-29 14:53 006 0 gusting 1 17.8
2014-Oct-29 14:43 17.8
2014-Oct-29 14:33 18.3
2014-Oct-29 14:23 345 0 gusting 1 18.3
2014-Oct-29 14:13 350 18.3
2014-Oct-29 14:03 345 1 gusting 2 18.3
2014-Oct-29 13:53 225 18.9
2014-Oct-29 13:43 340 18.9
2014-Oct-29 13:33 187 1 gusting 4 19.4
2014-Oct-29 13:23 328 0 gusting 2 19.4
2014-Oct-29 13:13 19.4
2014-Oct-29 13:03 270 0 gusting 1 18.9
2014-Oct-29 12:53 316 18.9
2014-Oct-29 12:43 259 0 gusting 4 19.4
2014-Oct-29 12:33 263 0 gusting 2 18.9
2014-Oct-29 12:23 152 0 gusting 2 18.9
2014-Oct-29 12:13 135 0 gusting 4 18.3
2014-Oct-29 12:03 064 1 gusting 2 17.8
2014-Oct-29 11:53 090 0 gusting 4 17.8
2014-Oct-29 11:43 099 1 gusting 2 18.3
2014-Oct-29 11:33 17.8
2014-Oct-29 11:23 317 1 gusting 2 17.8
2014-Oct-29 11:13 358 17.8
2014-Oct-29 11:03 259 0 gusting 2 17.8
2014-Oct-29 10:53 124 0 gusting 2 17.2
2014-Oct-29 10:43 17.2
2014-Oct-29 10:33 17.2
2014-Oct-29 10:23 049 0 gusting 5 17.2
2014-Oct-29 10:13 055 0 gusting 2 17.8
2014-Oct-29 10:03 131 0 gusting 2 17.8
2014-Oct-29 09:53 250 0 gusting 2 17.8
2014-Oct-29 09:43 327 17.2
2014-Oct-29 09:33 16.7
2014-Oct-29 09:23 16.7
2014-Oct-29 09:13 342 0 gusting 2 16.7
2014-Oct-29 09:03 157 1 gusting 2 16.1
2014-Oct-29 08:53 128 0 gusting 4 16.1
2014-Oct-29 08:43 097 0 gusting 2 15.6
2014-Oct-29 08:33 109 0 gusting 2 15.6
2014-Oct-29 08:23 259 14.4
2014-Oct-29 08:13 166 0 gusting 0 13.9
2014-Oct-29 08:03 333 0 gusting 1 13.9
2014-Oct-29 07:53 049 13.9
2014-Oct-29 07:43 13.3
2014-Oct-29 07:33 344 12.8
2014-Oct-29 07:23 333 12.8
2014-Oct-29 07:13 354 12.2
2014-Oct-29 07:03 315 0 gusting 1 11.7
2014-Oct-29 06:53 328 11.7
2014-Oct-29 06:43 314 11.1
2014-Oct-29 06:33 045 10.6
2014-Oct-29 06:23 180 10.0
2014-Oct-29 06:13 334 8.9
2014-Oct-29 06:03 090 0 gusting 0 8.9
2014-Oct-29 05:53 090 0 gusting 2 8.9
2014-Oct-29 05:43 090 0 gusting 0 8.9
2014-Oct-29 05:33 059 8.9
2014-Oct-29 05:23 081 0 gusting 1 8.9